RYR99RK LIEE-LIMJ

Flight info

Callsign RYR99RK
Flight time 1h 3m
Altitude 30000
Route KOVAS DCT CORSI A9 TORTU M858 UNITA
Aircraft B738/M-SDE3FGIJ1LRWY/SB1

Departure

Time 2026-04-21 19:05
Airport Cagliari Elmas Airport (LIEE)

Arrival

Time 2026-04-21 20:09
Airport Genoa Cristoforo Colombo Airport (LIMJ)
Time Latitude Longitude Altitude Speed Heading
2026-04-21 18:38 39.25237 9.05950 20 ft 0 kts 322°
2026-04-21 18:56 39.25230 9.05957 20 ft 2 kts 322°
2026-04-21 18:56 39.25218 9.05969 20 ft 2 kts 322°
2026-04-21 18:56 39.25206 9.05980 20 ft 2 kts 322°
2026-04-21 18:56 39.25198 9.05997 20 ft 2 kts 277°
2026-04-21 18:57 39.25200 9.06016 20 ft 2 kts 240°
2026-04-21 18:57 39.25209 9.06030 20 ft 1 kts 229°
2026-04-21 18:57 39.25212 9.06035 20 ft 0 kts 233°
2026-04-21 19:00 39.25208 9.06028 20 ft 3 kts 233°
2026-04-21 19:00 39.25180 9.05980 20 ft 8 kts 232°
2026-04-21 19:01 39.25147 9.05906 20 ft 10 kts 270°
2026-04-21 19:01 39.25140 9.05808 20 ft 12 kts 236°
2026-04-21 19:01 39.25061 9.05804 20 ft 14 kts 138°
2026-04-21 19:01 39.24982 9.05895 20 ft 16 kts 138°
2026-04-21 19:02 39.24892 9.06000 20 ft 17 kts 137°
2026-04-21 19:02 39.24805 9.06105 20 ft 16 kts 136°
2026-04-21 19:02 39.24720 9.06200 20 ft 15 kts 139°
2026-04-21 19:02 39.24641 9.06291 20 ft 14 kts 138°
2026-04-21 19:03 39.24566 9.06378 20 ft 13 kts 138°
2026-04-21 19:03 39.24496 9.06460 20 ft 13 kts 137°
2026-04-21 19:03 39.24431 9.06535 20 ft 12 kts 137°
2026-04-21 19:03 39.24359 9.06574 20 ft 11 kts 182°
2026-04-21 19:04 39.24288 9.06546 20 ft 10 kts 201°
2026-04-21 19:04 39.24238 9.06502 20 ft 4 kts 244°
2026-04-21 19:04 39.24250 9.06469 20 ft 4 kts 317°
2026-04-21 19:04 39.24306 9.06405 20 ft 31 kts 318°
2026-04-21 19:05 39.24654 9.06004 20 ft 102 kts 318°
2026-04-21 19:05 39.25340 9.05207 21 ft 160 kts 317°
2026-04-21 19:05 39.26208 9.04182 462 ft 173 kts 319°
2026-04-21 19:05 39.27107 9.03159 1167 ft 175 kts 325°
2026-04-21 19:06 39.28266 9.02635 1686 ft 186 kts 359°
2026-04-21 19:06 39.29591 9.02733 2227 ft 199 kts
2026-04-21 19:06 39.31021 9.02908 2767 ft 216 kts
2026-04-21 19:06 39.32580 9.03093 3320 ft 234 kts
2026-04-21 19:07 39.34230 9.03287 3961 ft 248 kts
2026-04-21 19:07 39.36005 9.03496 4626 ft 261 kts
2026-04-21 19:07 39.37808 9.03710 5458 ft 266 kts
2026-04-21 19:07 39.39659 9.03930 6330 ft 270 kts
2026-04-21 19:08 39.41540 9.04154 7165 ft 274 kts
2026-04-21 19:08 39.43423 9.04377 8009 ft 278 kts
2026-04-21 19:08 39.45356 9.04607 8805 ft 282 kts
2026-04-21 19:08 39.47322 9.04846 9629 ft 286 kts
2026-04-21 19:09 39.49288 9.05095 10369 ft 291 kts
2026-04-21 19:09 39.51368 9.05360 10850 ft 306 kts
2026-04-21 19:09 39.53542 9.05637 11338 ft 321 kts
2026-04-21 19:09 39.55806 9.05925 11816 ft 335 kts
2026-04-21 19:10 39.58147 9.06225 12573 ft 340 kts
2026-04-21 19:10 39.60535 9.06532 13303 ft 345 kts
2026-04-21 19:10 39.62896 9.06836 14093 ft 347 kts
2026-04-21 19:10 39.65328 9.06990 14802 ft 349 kts 356°
2026-04-21 19:11 39.67748 9.06800 15529 ft 351 kts 352°
2026-04-21 19:11 39.70194 9.06422 16231 ft 354 kts 350°
2026-04-21 19:11 39.72623 9.05988 16945 ft 356 kts 349°
2026-04-21 19:11 39.75083 9.05551 17572 ft 361 kts 349°
2026-04-21 19:12 39.76748 9.05269 18013 ft 363 kts 350°
2026-04-21 19:12 39.80127 9.04728 18894 ft 367 kts 350°
2026-04-21 19:12 39.82644 9.04343 19534 ft 369 kts 350°
2026-04-21 19:12 39.85221 9.03955 20157 ft 372 kts 350°
2026-04-21 19:13 39.87786 9.03572 20758 ft 375 kts 350°
2026-04-21 19:13 39.90402 9.03181 21339 ft 378 kts 350°
2026-04-21 19:13 39.92998 9.02793 21915 ft 380 kts 350°
2026-04-21 19:13 39.95664 9.02393 22494 ft 383 kts 350°
2026-04-21 19:14 39.98295 9.01998 23016 ft 386 kts 350°
2026-04-21 19:14 40.00969 9.01595 23505 ft 390 kts 350°
2026-04-21 19:14 40.03680 9.01186 24061 ft 392 kts 350°
2026-04-21 19:14 40.06388 9.00777 24590 ft 394 kts 349°
2026-04-21 19:15 40.09141 9.00361 25059 ft 397 kts 349°
2026-04-21 19:15 40.11903 8.99944 25575 ft 399 kts 349°
2026-04-21 19:15 40.14657 8.99527 26033 ft 402 kts 349°
2026-04-21 19:15 40.17416 8.99109 26584 ft 402 kts 349°
2026-04-21 19:16 40.20177 8.98693 27330 ft 396 kts 349°
2026-04-21 19:16 40.22933 8.98279 27955 ft 394 kts 349°
2026-04-21 19:16 40.25658 8.97868 28478 ft 394 kts 349°
2026-04-21 19:16 40.28378 8.97455 29022 ft 392 kts 349°
2026-04-21 19:17 40.33806 8.96630 29934 ft 391 kts 349°
2026-04-21 19:17 40.39214 8.95802 29945 ft 389 kts 349°
2026-04-21 19:18 40.44602 8.94980 29947 ft 388 kts 349°
2026-04-21 19:18 40.49931 8.94164 29948 ft 387 kts 349°
2026-04-21 19:19 40.55300 8.93342 29945 ft 387 kts 349°
2026-04-21 19:19 40.60676 8.92517 29946 ft 388 kts 349°
2026-04-21 19:20 40.66025 8.91695 29938 ft 387 kts 349°
2026-04-21 19:20 40.71394 8.90869 29939 ft 388 kts 349°
2026-04-21 19:21 40.76722 8.90049 29930 ft 386 kts 348°
2026-04-21 19:21 40.82078 8.89222 29931 ft 385 kts 348°
2026-04-21 19:22 40.87380 8.88404 29929 ft 383 kts 348°
2026-04-21 19:22 40.92674 8.87582 29929 ft 384 kts 348°
2026-04-21 19:23 40.97992 8.86755 29930 ft 384 kts 349°
2026-04-21 19:23 41.03337 8.85925 29922 ft 384 kts 349°
2026-04-21 19:24 41.08674 8.85096 29928 ft 384 kts 348°
2026-04-21 19:24 41.13975 8.84270 29926 ft 383 kts 348°
2026-04-21 19:25 41.19237 8.83448 29924 ft 382 kts 348°
2026-04-21 19:25 41.24539 8.82618 29919 ft 383 kts 348°
2026-04-21 19:26 41.29887 8.81781 29913 ft 383 kts 348°
2026-04-21 19:26 41.35169 8.80993 29926 ft 383 kts 350°
2026-04-21 19:27 41.40522 8.80504 29924 ft 378 kts 352°
2026-04-21 19:27 41.43085 8.80321 29924 ft 362 kts 352°
2026-04-21 19:27 41.45537 8.80148 29928 ft 347 kts 351°
2026-04-21 19:28 41.47913 8.79974 29930 ft 332 kts 351°
2026-04-21 19:28 41.50170 8.79799 29933 ft 322 kts 351°
2026-04-21 19:28 41.54665 8.79412 29932 ft 326 kts 351°
2026-04-21 19:29 41.59189 8.79016 29935 ft 325 kts 351°
2026-04-21 19:29 41.63730 8.78624 29937 ft 324 kts 350°
2026-04-21 19:30 41.68224 8.78236 29939 ft 325 kts 350°
2026-04-21 19:30 41.72747 8.77844 29947 ft 324 kts 350°
2026-04-21 19:31 41.77244 8.77519 29942 ft 326 kts 354°
2026-04-21 19:31 41.81812 8.77860 29936 ft 330 kts 359°
2026-04-21 19:32 41.86400 8.78439 29933 ft 331 kts 359°
2026-04-21 19:32 41.90988 8.78994 29932 ft 330 kts 358°
2026-04-21 19:33 41.95550 8.79518 29934 ft 328 kts 358°
2026-04-21 19:33 42.00106 8.80030 29930 ft 328 kts 358°
2026-04-21 19:34 42.04673 8.80538 29941 ft 329 kts 358°
2026-04-21 19:34 42.09257 8.81054 29942 ft 329 kts 358°
2026-04-21 19:35 42.16108 8.81822 29944 ft 327 kts 358°
2026-04-21 19:36 42.20632 8.82330 29949 ft 326 kts 358°
2026-04-21 19:36 42.25190 8.82841 29954 ft 327 kts 358°
2026-04-21 19:37 42.29707 8.83350 29951 ft 328 kts 358°
2026-04-21 19:37 42.34280 8.83871 29941 ft 326 kts 358°
2026-04-21 19:38 42.38822 8.84387 29934 ft 325 kts 358°
2026-04-21 19:38 42.42581 8.84816 29934 ft 326 kts 358°
2026-04-21 19:39 42.47844 8.85416 29934 ft 325 kts 358°
2026-04-21 19:39 42.52385 8.85931 29935 ft 325 kts 358°
2026-04-21 19:40 42.56924 8.86449 29930 ft 326 kts 358°
2026-04-21 19:40 42.61408 8.86963 29926 ft 325 kts 357°
2026-04-21 19:41 42.65929 8.87480 29921 ft 324 kts 357°
2026-04-21 19:41 42.70419 8.87995 29918 ft 325 kts 357°
2026-04-21 19:42 42.74900 8.88509 29910 ft 323 kts 357°
2026-04-21 19:42 42.79382 8.89000 29912 ft 323 kts 357°
2026-04-21 19:43 42.83863 8.89484 29702 ft 318 kts 357°
2026-04-21 19:43 42.86048 8.89736 29345 ft 316 kts 357°
2026-04-21 19:43 42.88245 8.89987 28903 ft 318 kts 357°
2026-04-21 19:43 42.90477 8.90239 28428 ft 322 kts 357°
2026-04-21 19:44 42.92721 8.90493 28032 ft 322 kts 357°
2026-04-21 19:44 42.94960 8.90750 27633 ft 323 kts 357°
2026-04-21 19:44 42.97197 8.91012 27241 ft 324 kts 358°
2026-04-21 19:44 42.99459 8.91278 26839 ft 326 kts 358°
2026-04-21 19:45 43.01726 8.91545 26431 ft 327 kts 358°
2026-04-21 19:45 43.03998 8.91813 26027 ft 327 kts 358°
2026-04-21 19:45 43.06248 8.92080 25633 ft 325 kts 358°
2026-04-21 19:45 43.08476 8.92344 25239 ft 325 kts 358°
2026-04-21 19:46 43.10745 8.92613 24837 ft 324 kts 358°
2026-04-21 19:46 43.12973 8.92875 24436 ft 323 kts 358°
2026-04-21 19:46 43.15205 8.93138 24042 ft 323 kts 358°
2026-04-21 19:46 43.17431 8.93401 23656 ft 322 kts 358°
2026-04-21 19:47 43.19667 8.93665 23260 ft 322 kts 359°
2026-04-21 19:47 43.21899 8.93929 22865 ft 322 kts 359°
2026-04-21 19:47 43.24135 8.94190 22472 ft 322 kts 358°
2026-04-21 19:47 43.26365 8.94442 22076 ft 322 kts 358°
2026-04-21 19:48 43.28582 8.94688 21683 ft 321 kts 358°
2026-04-21 19:48 43.30792 8.94936 21294 ft 317 kts 358°
2026-04-21 19:48 43.32971 8.95181 20910 ft 314 kts 358°
2026-04-21 19:48 43.35125 8.95424 20530 ft 310 kts 358°
2026-04-21 19:49 43.37277 8.95665 20152 ft 307 kts 359°
2026-04-21 19:49 43.39369 8.95903 19906 ft 299 kts 358°
2026-04-21 19:49 43.41411 8.96153 19903 ft 288 kts 359°
2026-04-21 19:49 43.43388 8.96399 19876 ft 289 kts 358°
2026-04-21 19:50 43.44741 8.96562 19698 ft 293 kts 358°
2026-04-21 19:50 43.47433 8.96892 19359 ft 290 kts 358°
2026-04-21 19:50 43.49422 8.97140 19105 ft 287 kts 358°
2026-04-21 19:50 43.51391 8.97385 18856 ft 285 kts 358°
2026-04-21 19:51 43.53364 8.97629 18607 ft 284 kts 359°
2026-04-21 19:51 43.55329 8.97869 18353 ft 283 kts 358°
2026-04-21 19:51 43.57304 8.98100 18099 ft 281 kts 358°
2026-04-21 19:51 43.59233 8.98415 17848 ft 284 kts
2026-04-21 19:52 43.61113 8.99350 17580 ft 291 kts 15°
2026-04-21 19:52 43.62976 9.00435 17238 ft 288 kts 15°
2026-04-21 19:52 43.64801 9.01468 16898 ft 286 kts 15°
2026-04-21 19:52 43.66606 9.02654 16553 ft 287 kts 21°
2026-04-21 19:53 43.68338 9.04081 16211 ft 289 kts 26°
2026-04-21 19:53 43.70005 9.05613 15872 ft 289 kts 27°
2026-04-21 19:53 43.71670 9.07141 15534 ft 289 kts 27°
2026-04-21 19:53 43.73343 9.08666 15195 ft 288 kts 27°
2026-04-21 19:54 43.75034 9.10166 14905 ft 284 kts 24°
2026-04-21 19:54 43.76773 9.11362 14899 ft 276 kts 15°
2026-04-21 19:54 43.78570 9.12283 14890 ft 279 kts 13°
2026-04-21 19:54 43.80420 9.13148 14891 ft 278 kts 12°
2026-04-21 19:55 43.82241 9.14016 14893 ft 278 kts 13°
2026-04-21 19:55 43.84062 9.14915 14892 ft 277 kts 13°
2026-04-21 19:55 43.85893 9.15838 14890 ft 277 kts 13°
2026-04-21 19:55 43.87707 9.16761 14890 ft 278 kts 13°
2026-04-21 19:56 43.89516 9.17680 14668 ft 280 kts 14°
2026-04-21 19:56 43.91330 9.18604 14399 ft 278 kts 14°
2026-04-21 19:56 43.93132 9.19522 14103 ft 275 kts 14°
2026-04-21 19:56 43.94941 9.20445 13804 ft 274 kts 14°
2026-04-21 19:57 43.96686 9.21454 13504 ft 275 kts 22°
2026-04-21 19:57 43.98307 9.22832 13210 ft 274 kts 29°
2026-04-21 19:57 43.99868 9.24368 12920 ft 272 kts 30°
2026-04-21 19:57 44.01385 9.25871 12676 ft 267 kts 30°
2026-04-21 19:58 44.02883 9.27313 12430 ft 262 kts 29°
2026-04-21 19:58 44.04392 9.28730 12177 ft 257 kts 29°
2026-04-21 19:58 44.05856 9.30092 11933 ft 253 kts 28°
2026-04-21 19:58 44.07314 9.31445 11690 ft 249 kts 29°
2026-04-21 19:59 44.08740 9.32767 11455 ft 243 kts 28°
2026-04-21 19:59 44.10136 9.34060 11159 ft 241 kts 29°
2026-04-21 19:59 44.11524 9.35348 10857 ft 239 kts 30°
2026-04-21 19:59 44.12906 9.36614 10560 ft 236 kts 26°
2026-04-21 20:00 44.14382 9.37479 10259 ft 229 kts
2026-04-21 20:00 44.15936 9.37294 9956 ft 220 kts 336°
2026-04-21 20:00 44.17252 9.36257 9660 ft 217 kts 322°
2026-04-21 20:00 44.18455 9.34990 9333 ft 217 kts 321°
2026-04-21 20:01 44.19640 9.33729 9020 ft 217 kts 321°
2026-04-21 20:01 44.20848 9.32454 8702 ft 218 kts 322°
2026-04-21 20:01 44.22052 9.31187 8379 ft 218 kts 322°
2026-04-21 20:01 44.23273 9.29898 8049 ft 218 kts 322°
2026-04-21 20:02 44.24078 9.29048 7834 ft 218 kts 322°
2026-04-21 20:02 44.25678 9.27358 7409 ft 219 kts 323°
2026-04-21 20:02 44.26899 9.26069 7086 ft 219 kts 323°
2026-04-21 20:02 44.28109 9.24787 6759 ft 220 kts 323°
2026-04-21 20:03 44.29332 9.23491 6430 ft 220 kts 323°
2026-04-21 20:03 44.30557 9.22196 6103 ft 221 kts 323°
2026-04-21 20:03 44.31771 9.20908 5786 ft 222 kts 323°
2026-04-21 20:03 44.32967 9.19571 5463 ft 222 kts 319°
2026-04-21 20:04 44.33980 9.17919 5131 ft 224 kts 298°
2026-04-21 20:04 44.34528 9.15906 4816 ft 226 kts 287°
2026-04-21 20:04 44.34943 9.13783 4488 ft 227 kts 285°
2026-04-21 20:04 44.35336 9.11649 4164 ft 228 kts 285°
2026-04-21 20:05 44.35699 9.09480 3754 ft 233 kts 284°
2026-04-21 20:05 44.36078 9.07316 3387 ft 225 kts 287°
2026-04-21 20:05 44.36529 9.05284 3074 ft 214 kts 290°
2026-04-21 20:05 44.36978 9.03376 2780 ft 203 kts 289°
2026-04-21 20:06 44.37391 9.01525 2471 ft 194 kts 289°
2026-04-21 20:06 44.37775 8.99777 2236 ft 183 kts 289°
2026-04-21 20:06 44.38152 8.98097 1986 ft 175 kts 290°
2026-04-21 20:06 44.38512 8.96481 1687 ft 172 kts 289°
2026-04-21 20:07 44.38861 8.94913 1459 ft 170 kts 289°
2026-04-21 20:07 44.39209 8.93346 1216 ft 169 kts 289°
2026-04-21 20:07 44.39441 8.92309 1061 ft 167 kts 288°
2026-04-21 20:07 44.39893 8.90262 742 ft 164 kts 288°
2026-04-21 20:08 44.40234 8.88759 505 ft 161 kts 288°
2026-04-21 20:08 44.40571 8.87268 275 ft 158 kts 287°
2026-04-21 20:08 44.40876 8.85825 72 ft 154 kts 284°
2026-04-21 20:08 44.41132 8.84505 20 ft 115 kts 284°
2026-04-21 20:09 44.41299 8.83652 18 ft 69 kts 283°
2026-04-21 20:09 44.41409 8.83179 18 ft 30 kts 307°
2026-04-21 20:09 44.41502 8.83084 18 ft 15 kts
2026-04-21 20:09 44.41507 8.83084 18 ft 15 kts
2026-04-21 20:10 44.41548 8.83169 18 ft 13 kts 96°
2026-04-21 20:10 44.41525 8.83290 18 ft 12 kts 106°
2026-04-21 20:10 44.41503 8.83403 18 ft 11 kts 105°
2026-04-21 20:10 44.41482 8.83510 18 ft 11 kts 105°
2026-04-21 20:11 44.41461 8.83620 18 ft 12 kts 105°
2026-04-21 20:11 44.41434 8.83758 18 ft 16 kts 105°
2026-04-21 20:11 44.41400 8.83930 18 ft 19 kts 105°
2026-04-21 20:11 44.41367 8.84104 18 ft 18 kts 105°
2026-04-21 20:12 44.41334 8.84271 18 ft 17 kts 105°
2026-04-21 20:12 44.41322 8.84412 20 ft 11 kts 62°
2026-04-21 20:12 44.41352 8.84470 21 ft 11 kts 53°
2026-04-21 20:12 44.41414 8.84596 24 ft 12 kts 77°
2026-04-21 20:13 44.41403 8.84693 27 ft 8 kts 105°
2026-04-21 20:13 44.41389 8.84763 28 ft 7 kts 105°
2026-04-21 20:13 44.41387 8.84829 29 ft 6 kts 66°
2026-04-21 20:13 44.41410 8.84890 30 ft 7 kts 61°
2026-04-21 20:14 44.41428 8.84936 30 ft 1 kts 61°
2026-04-21 20:14 44.41431 8.84942 30 ft 0 kts 61°
2026-04-21 20:14 44.41431 8.84944 30 ft 0 kts 61°